Airfield :
LOGIN :

Register | Disclaimer

   EN    FR    IT 

 










Legend :    VFR   Marginal VFR   IFR   Intensive IFR   Very Intensive IFR
Visi :
Ceiling :
>= 8 km
>= 3000ft
5 to 8 km
1000 to 3000 ft
1500m to 5 km
500 to 1000 ft
800 to 1500m
200 to 500 ft
< 800m
< 200 ft
Symbols :   Thunderstorms  Fog  Heavy snow  Heavy precipitations  Wind > 20 kt
SIGMETs :     Misc.  Thunderstorms  Icing  Turbulence  Mountain Waves  Volcanic Ashes







- Airport Elevation : 131 ft
- IATA code : PAS


LGPA - Paros

CURRENT METAR :
  • 191150Z 34012KT CAVOK 27/18 Q1012

EXPIRED METARs :
  • 191050Z 33012KT CAVOK 28/17 Q1012
  • 190950Z 33012KT CAVOK 26/18 Q1013

TAF N/A
No reported NOTAMs for that airfield.
2 SIGMETs reported for the Athinai FIR (LGGG) :
 
Embedded thunderstorms
LGGG SIGMET 2 VALID 191148/191348 LGAT
LGGG ATHINAI FIR/UIR EMBD TS OBS N OF N3730 AND W OF E02450 LAN STNR=
Embedded thunderstorms
LGGG SIGMET 2 VALID 191048/191248 LGAT
LGGG ATHINAI FIR/UIR EMBD TS OBS N OF N3730 AND W OF E02450 LAN STNR=



MET'MAP, your aeronautical weather chart ! - Copyright ORBIFLY December 2007 - Disclaimer

ORBIFLY MET'MAP TEAM :

Programming & Development : Alexandra Zaïnal
Concept & Development : Baudouin d'Aumeries
Co-Development & Prog : Marc-Olivier Méhu
Technical & hardware support : Manuel Goepfert

Contact : metmap@orbifly.com




SOURCES & CREDITS :

   NOAA